| time (UTC) | temp F | wind direction | speed MPH | gust MPH | rain 1hr in | rain 24hr in | rain mn in | humidity % | barometer mb |
| 20260903091123 | 62 | 24 | 5.0 | 20.0 | 0.00 | 0.00 | 0.00 | 52 | 857.9 |
| 20260903090510 | 61 | 38 | 7.0 | 20.0 | 0.00 | 0.00 | 0.00 | 48 | 857.9 |
| 20260903085509 | 61 | 33 | 2.0 | 13.0 | 0.00 | 0.00 | 0.00 | 50 | 857.8 |
| 20260903084122 | 61 | 31 | 4.0 | 14.0 | 0.00 | 0.00 | 0.00 | 50 | 857.8 |
| 20260903083510 | 61 | 41 | 3.0 | 13.0 | 0.00 | 0.00 | 0.00 | 50 | 857.8 |
| 20260903082510 | 61 | 48 | 5.0 | 15.0 | 0.00 | 0.00 | 0.00 | 50 | 857.8 |
| 20260903081123 | 60 | 41 | 4.0 | 16.0 | 0.00 | 0.00 | 0.00 | 50 | 857.8 |
| 20260903080510 | 60 | 29 | 3.0 | 11.0 | 0.00 | 0.00 | 0.00 | 52 | 857.7 |
| 20260903075510 | 60 | 29 | 6.0 | 17.0 | 0.00 | 0.00 | 0.00 | 52 | 857.7 |
| 20260903074123 | 59 | 25 | 5.0 | 14.0 | 0.00 | 0.00 | 0.00 | 52 | 857.7 |
| 20260903073509 | 59 | 26 | 4.0 | 17.0 | 0.00 | 0.00 | 0.00 | 54 | 857.7 |
| 20260903072509 | 59 | 34 | 6.0 | 15.0 | 0.00 | 0.00 | 0.00 | 54 | 857.7 |
| 20260903071123 | 59 | 48 | 5.0 | 12.0 | 0.00 | 0.00 | 0.00 | 57 | 857.7 |
| 20260903070510 | 58 | 38 | 4.0 | 13.0 | 0.00 | 0.00 | 0.00 | 57 | 857.7 |
| 20260903065510 | 57 | 38 | 3.0 | 14.0 | 0.00 | 0.00 | 0.00 | 57 | 857.7 |
| 20260903064122 | 57 | 51 | 3.0 | 13.0 | 0.00 | 0.00 | 0.00 | 58 | 857.5 |
| 20260903063509 | 55 | 84 | 3.0 | 12.0 | 0.00 | 0.00 | 0.00 | 60 | 857.6 |
| 20260903062510 | 55 | 76 | 4.0 | 10.0 | 0.00 | 0.00 | 0.00 | 60 | 857.6 |
| 20260903061123 | 55 | 93 | 2.0 | 11.0 | 0.00 | 0.00 | 0.00 | 60 | 857.6 |
| 20260903060510 | 54 | 78 | 2.0 | 9.0 | 0.00 | 0.00 | 0.00 | 62 | 857.6 |
| 20260903055509 | 54 | 26 | 2.0 | 12.0 | 0.00 | 0.00 | 0.00 | 63 | 857.5 |
| 20260903054122 | 54 | 53 | 3.0 | 10.0 | 0.00 | 0.00 | 0.00 | 64 | 857.4 |
| 20260903053510 | 54 | 69 | 4.0 | 13.0 | 0.00 | 0.00 | 0.00 | 62 | 857.4 |
| 20260903052510 | 54 | 60 | 2.0 | 9.0 | 0.00 | 0.00 | 0.00 | 63 | 857.3 |
| 20260903051123 | 54 | 58 | 2.0 | 8.0 | 0.00 | 0.00 | 0.00 | 62 | 857.3 |
| 20260903050509 | 54 | 360 | 0.0 | 5.0 | 0.00 | 0.00 | 0.00 | 62 | 857.3 |
| 20260903045510 | 55 | 106 | 3.0 | 8.0 | 0.00 | 0.00 | 0.00 | 60 | 857.2 |
| 20260903044122 | 54 | 115 | 3.0 | 7.0 | 0.00 | 0.00 | 0.00 | 62 | 857.3 |
| 20260903043509 | 55 | 136 | 3.0 | 9.0 | 0.00 | 0.00 | 0.00 | 61 | 857.3 |
| 20260903042510 | 54 | 178 | 2.0 | 6.0 | 0.00 | 0.00 | 0.00 | 62 | 857.3 |
| 20260903041122 | 54 | 127 | 3.0 | 8.0 | 0.00 | 0.00 | 0.00 | 63 | 857.3 |
| 20260903040510 | 53 | 125 | 1.0 | 4.0 | 0.00 | 0.00 | 0.00 | 66 | 857.3 |
| 20260903035510 | 55 | 50 | 2.0 | 8.0 | 0.00 | 0.00 | 0.00 | 60 | 857.4 |
| 20260903034509 | 53 | 54 | 2.0 | 7.0 | 0.00 | 0.00 | 0.00 | 64 | 857.4 |
| 20260903033510 | 53 | 43 | 0.0 | 6.0 | 0.00 | 0.00 | 0.00 | 66 | 857.4 |
| 20260903032510 | 54 | 76 | 2.0 | 6.0 | 0.00 | 0.00 | 0.00 | 62 | 857.4 |
| 20260903031123 | 53 | 67 | 2.0 | 5.0 | 0.00 | 0.00 | 0.00 | 64 | 857.4 |
| 20260903030510 | 54 | 76 | 2.0 | 5.0 | 0.00 | 0.00 | 0.00 | 63 | 857.4 |
| 20260903025510 | 55 | 113 | 3.0 | 8.0 | 0.00 | 0.00 | 0.00 | 60 | 857.4 |
| 20260903024510 | 55 | 96 | 2.0 | 6.0 | 0.00 | 0.00 | 0.00 | 60 | 857.5 |
| 20260903023510 | 55 | 87 | 3.0 | 9.0 | 0.00 | 0.00 | 0.00 | 60 | 857.4 |
| 20260903022510 | 55 | 100 | 2.0 | 6.0 | 0.00 | 0.00 | 0.00 | 62 | 857.5 |
| 20260903021122 | 55 | 114 | 2.0 | 5.0 | 0.00 | 0.00 | 0.00 | 64 | 857.5 |
| 20260903020510 | 55 | 179 | 1.0 | 3.0 | 0.00 | 0.00 | 0.00 | 62 | 857.6 |
| 20260903015510 | 55 | 93 | 1.0 | 4.0 | 0.00 | 0.00 | 0.00 | 64 | 857.6 |
| 20260903014122 | 55 | 332 | 1.0 | 10.0 | 0.00 | 0.00 | 0.00 | 62 | 857.6 |
| 20260903013509 | 55 | 344 | 0.0 | 10.0 | 0.00 | 0.00 | 0.00 | 67 | 857.6 |
| 20260903012509 | 55 | 13 | 1.0 | 6.0 | 0.00 | 0.00 | 0.00 | 66 | 857.6 |
| 20260903011123 | 55 | 18 | 2.0 | 7.0 | 0.00 | 0.00 | 0.00 | 66 | 857.6 |
| 20260903010510 | 55 | 33 | 3.0 | 7.0 | 0.00 | 0.00 | 0.00 | 64 | 857.6 |
| 20260903005510 | 55 | 22 | 4.0 | 7.0 | 0.00 | 0.00 | 0.00 | 67 | 857.6 |
| 20260903004123 | 55 | 31 | 5.0 | 9.0 | 0.00 | 0.00 | 0.00 | 64 | 857.5 |
| 20260903003510 | 55 | 1 | 2.0 | 8.0 | 0.00 | 0.00 | 0.00 | 64 | 857.5 |
| 20260903002510 | 54 | 19 | 2.0 | 8.0 | 0.00 | 0.00 | 0.00 | 69 | 857.5 |
| 20260903001522 | 53 | 312 | 1.0 | 7.0 | 0.00 | 0.00 | 0.00 | 70 | 857.5 |
| 20260903000509 | 54 | 18 | 1.0 | 6.0 | 0.00 | 0.00 | 0.00 | 71 | 857.6 |
| 20260902235509 | 55 | 87 | 2.0 | 7.0 | 0.00 | 0.00 | 0.00 | 64 | 857.5 |
| 20260902234123 | 55 | 105 | 1.0 | 5.0 | 0.00 | 0.00 | 0.00 | 64 | 857.5 |
| 20260902233509 | 54 | 103 | 1.0 | 7.0 | 0.00 | 0.00 | 0.00 | 74 | 857.6 |
| 20260902232509 | 53 | 73 | 1.0 | 10.0 | 0.00 | 0.00 | 0.00 | 72 | 857.6 |
| 20260902231510 | 52 | 130 | 1.0 | 5.0 | 0.00 | 0.00 | 0.00 | 82 | 857.6 |
| 20260902230509 | 52 | 148 | 5.0 | 7.0 | 0.00 | 0.00 | 0.00 | 83 | 857.6 |
| 20260902225510 | 51 | 151 | 7.0 | 9.0 | 0.00 | 0.00 | 0.00 | 86 | 857.6 |
| 20260902224123 | 51 | 150 | 6.0 | 8.0 | 0.00 | 0.00 | 0.00 | 89 | 857.5 |
| 20260902223511 | 51 | 151 | 6.0 | 9.0 | 0.00 | 0.00 | 0.00 | 86 | 857.4 |
| 20260902222510 | 52 | 156 | 6.0 | 8.0 | 0.00 | 0.00 | 0.00 | 84 | 857.4 |
| 20260902221123 | 51 | 155 | 7.0 | 9.0 | 0.00 | 0.00 | 0.00 | 91 | 857.4 |
| 20260902220509 | 52 | 171 | 5.0 | 8.0 | 0.00 | 0.00 | 0.00 | 87 | 857.4 |
| 20260902215509 | 52 | 164 | 7.0 | 11.0 | 0.00 | 0.00 | 0.00 | 88 | 857.4 |
| 20260902214123 | 52 | 156 | 8.0 | 15.0 | 0.00 | 0.00 | 0.00 | 92 | 857.6 |
| 20260902213509 | 53 | 152 | 9.0 | 14.0 | 0.00 | 0.00 | 0.00 | 96 | 857.5 |
| 20260902211123 | 55 | 174 | 5.0 | 7.0 | 0.00 | 0.00 | 0.00 | 90 | 857.3 |
| 20260902210510 | 55 | 162 | 5.0 | 8.0 | 0.00 | 0.00 | 0.00 | 89 | 857.2 |
| 20260902205510 | 55 | 161 | 3.0 | 5.0 | 0.00 | 0.00 | 0.00 | 88 | 857.2 |
| 20260902204124 | 55 | 146 | 3.0 | 4.0 | 0.00 | 0.00 | 0.00 | 88 | 857.2 |
| 20260902203509 | 55 | 155 | 3.0 | 4.0 | 0.00 | 0.00 | 0.00 | 87 | 857.2 |
| 20260902202510 | 55 | 184 | 1.0 | 3.0 | 0.00 | 0.00 | 0.00 | 86 | 857.4 |
| 20260902201123 | 55 | 172 | 1.0 | 2.0 | 0.00 | 0.00 | 0.00 | 86 | 857.3 |
| 20260902200510 | 55 | 185 | 1.0 | 3.0 | 0.00 | 0.00 | 0.00 | 88 | 857.1 |
| 20260902195510 | 55 | 82 | 0.0 | 4.0 | 0.00 | 0.00 | 0.00 | 89 | 857.1 |
| 20260902194123 | 55 | 145 | 1.0 | 4.0 | 0.00 | 0.00 | 0.00 | 89 | 857.1 |
| 20260902193510 | 55 | 154 | 4.0 | 5.0 | 0.00 | 0.00 | 0.00 | 89 | 857.1 |
| 20260902192509 | 55 | 147 | 3.0 | 5.0 | 0.00 | 0.00 | 0.00 | 88 | 857.1 |
| 20260902191123 | 55 | 172 | 3.0 | 6.0 | 0.00 | 0.00 | 0.00 | 87 | 857.0 |
| 20260902190509 | 56 | 152 | 5.0 | 6.0 | 0.00 | 0.00 | 0.00 | 86 | 856.9 |
| 20260902185510 | 56 | 156 | 3.0 | 5.0 | 0.00 | 0.00 | 0.00 | 85 | 856.8 |
| 20260902184123 | 56 | 154 | 3.0 | 4.0 | 0.00 | 0.00 | 0.00 | 86 | 856.7 |
| 20260902183510 | 56 | 160 | 3.0 | 5.0 | 0.00 | 0.00 | 0.00 | 85 | 856.6 |
| 20260902182510 | 57 | 178 | 3.0 | 6.0 | 0.00 | 0.00 | 0.00 | 84 | 856.6 |
| 20260902181123 | 57 | 182 | 3.0 | 6.0 | 0.00 | 0.00 | 0.00 | 84 | 856.4 |
| 20260902180510 | 57 | 181 | 4.0 | 6.0 | 0.00 | 0.00 | 0.00 | 85 | 856.4 |
| 20260902175510 | 57 | 206 | 2.0 | 6.0 | 0.00 | 0.00 | 0.00 | 85 | 856.3 |
| 20260902174123 | 57 | 167 | 4.0 | 7.0 | 0.00 | 0.00 | 0.00 | 84 | 856.2 |
| 20260902173509 | 58 | 170 | 4.0 | 7.0 | 0.00 | 0.00 | 0.00 | 83 | 856.2 |
| 20260902172510 | 58 | 164 | 4.0 | 7.0 | 0.00 | 0.00 | 0.00 | 74 | 856.0 |
| 20260902171123 | 59 | 163 | 5.0 | 7.0 | 0.00 | 0.00 | 0.00 | 74 | 855.9 |
| 20260902170510 | 59 | 163 | 4.0 | 6.0 | 0.00 | 0.00 | 0.00 | 71 | 855.8 |
| 20260902165510 | 59 | 185 | 2.0 | 5.0 | 0.00 | 0.00 | 0.00 | 70 | 855.9 |
| 20260902164123 | 59 | 179 | 4.0 | 6.0 | 0.00 | 0.00 | 0.00 | 74 | 855.8 |
| 20260902163510 | 60 | 161 | 5.0 | 8.0 | 0.00 | 0.00 | 0.00 | 71 | 855.8 |
| 20260902162510 | 60 | 158 | 6.0 | 8.0 | 0.00 | 0.00 | 0.00 | 71 | 855.9 |
| 20260902161123 | 60 | 160 | 4.0 | 7.0 | 0.00 | 0.00 | 0.00 | 67 | 855.9 |
| 20260902160509 | 60 | 179 | 5.0 | 8.0 | 0.00 | 0.00 | 0.00 | 67 | 855.9 |
| 20260902155510 | 61 | 177 | 5.0 | 8.0 | 0.00 | 0.00 | 0.00 | 65 | 855.9 |
| 20260902154123 | 61 | 163 | 5.0 | 8.0 | 0.00 | 0.00 | 0.00 | 67 | 855.9 |
| 20260902153510 | 61 | 174 | 4.0 | 9.0 | 0.00 | 0.00 | 0.00 | 68 | 856.0 |
| 20260902152509 | 61 | 181 | 4.0 | 7.0 | 0.00 | 0.00 | 0.00 | 74 | 856.0 |
| 20260902151123 | 61 | 170 | 4.0 | 8.0 | 0.00 | 0.00 | 0.00 | 74 | 856.0 |
| 20260902150510 | 61 | 175 | 5.0 | 8.0 | 0.00 | 0.00 | 0.00 | 70 | 856.0 |
| 20260902145510 | 61 | 174 | 6.0 | 10.0 | 0.00 | 0.00 | 0.00 | 70 | 856.0 |
| 20260902144123 | 61 | 174 | 4.0 | 9.0 | 0.00 | 0.00 | 0.00 | 70 | 856.0 |
| 20260902143509 | 62 | 158 | 5.0 | 11.0 | 0.00 | 0.00 | 0.00 | 67 | 855.9 |
| 20260902142510 | 63 | 177 | 5.0 | 10.0 | 0.00 | 0.00 | 0.00 | 67 | 856.0 |
| 20260902141123 | 62 | 168 | 5.0 | 9.0 | 0.00 | 0.00 | 0.00 | 67 | 856.0 |
| 20260902140510 | 62 | 159 | 6.0 | 11.0 | 0.00 | 0.00 | 0.00 | 66 | 856.0 |
| 20260902135510 | 62 | 176 | 6.0 | 11.0 | 0.00 | 0.00 | 0.00 | 69 | 856.0 |
| 20260902134121 | 62 | 183 | 4.0 | 9.0 | 0.00 | 0.00 | 0.00 | 68 | 856.0 |
| 20260902133510 | 63 | 157 | 7.0 | 14.0 | 0.00 | 0.00 | 0.00 | 68 | 855.9 |
| 20260902132510 | 62 | 153 | 8.0 | 13.0 | 0.00 | 0.00 | 0.00 | 68 | 856.0 |
| 20260902131123 | 62 | 172 | 6.0 | 12.0 | 0.00 | 0.00 | 0.00 | 68 | 856.1 |
| 20260902130510 | 63 | 172 | 5.0 | 11.0 | 0.00 | 0.00 | 0.00 | 68 | 856.2 |
| 20260902125510 | 63 | 172 | 6.0 | 14.0 | 0.00 | 0.00 | 0.00 | 63 | 856.2 |
| 20260902124122 | 63 | 180 | 6.0 | 11.0 | 0.00 | 0.00 | 0.00 | 63 | 856.2 |
| 20260902123510 | 63 | 181 | 5.0 | 13.0 | 0.00 | 0.00 | 0.00 | 66 | 856.2 |
| 20260902122510 | 63 | 178 | 6.0 | 16.0 | 0.00 | 0.00 | 0.00 | 66 | 856.3 |
| 20260902121123 | 63 | 173 | 5.0 | 11.0 | 0.00 | 0.00 | 0.00 | 66 | 856.5 |
| 20260902120509 | 63 | 168 | 5.0 | 11.0 | 0.00 | 0.00 | 0.00 | 63 | 856.5 |
| 20260902115509 | 63 | 186 | 5.0 | 10.0 | 0.00 | 0.00 | 0.00 | 63 | 856.6 |
| 20260902114123 | 63 | 177 | 6.0 | 13.0 | 0.00 | 0.00 | 0.00 | 63 | 856.6 |
| 20260902113510 | 62 | 159 | 7.0 | 13.0 | 0.00 | 0.00 | 0.00 | 67 | 856.7 |
| 20260902112510 | 62 | 160 | 7.0 | 13.0 | 0.00 | 0.00 | 0.00 | 67 | 856.7 |
| 20260902111123 | 62 | 162 | 7.0 | 14.0 | 0.00 | 0.00 | 0.00 | 78 | 856.9 |
| 20260902110510 | 61 | 166 | 7.0 | 16.0 | 0.00 | 0.00 | 0.00 | 78 | 856.9 |
| 20260902105509 | 60 | 160 | 8.0 | 14.0 | 0.00 | 0.00 | 0.00 | 78 | 857.0 |
| 20260902104123 | 60 | 163 | 8.0 | 16.0 | 0.00 | 0.00 | 0.00 | 78 | 857.1 |
| 20260902103510 | 60 | 154 | 8.0 | 13.0 | 0.00 | 0.00 | 0.00 | 78 | 857.2 |
| 20260902102509 | 59 | 159 | 7.0 | 13.0 | 0.00 | 0.00 | 0.00 | 79 | 857.2 |
| 20260902101123 | 60 | 155 | 7.0 | 13.0 | 0.00 | 0.00 | 0.00 | 76 | 857.3 |
| 20260902100510 | 60 | 158 | 6.0 | 11.0 | 0.00 | 0.00 | 0.00 | 76 | 857.3 |
| 20260902095510 | 59 | 170 | 5.0 | 13.0 | 0.00 | 0.00 | 0.00 | 77 | 857.3 |
| 20260902094123 | 57 | 167 | 6.0 | 13.0 | 0.00 | 0.00 | 0.00 | 79 | 857.3 |
| 20260902093510 | 57 | 161 | 7.0 | 12.0 | 0.00 | 0.00 | 0.00 | 79 | 857.3 |